Location: Cazarilh
(42.9578°N, 0.5819°E)
Time: 18:24:30
(UTC+00:00)

Meteor 1-19 Rocket - Pass Details

Date: 11 December 2019
Orbit: 816 x 918 km, 81.2° (Epoch: 19 January)

Event Time Altitude Azimuth Distance (km) Brightness Sun altitude
Exits shadow 05:56:35 - 345° (NNW) 3,270 6.9 -14.4°
Reaches altitude 10° 05:58:45 10° 341° (NNW) 2,442 6.3 -14.0°
Maximum altitude 06:04:08 56° 265° (W) 996 4.3 -13.1°
Drops below altitude 10° 06:09:36 10° 188° (S) 2,483 6.8 -12.1°
Sets 06:12:05 0° 184° (S) 3,431 7.6 -11.7°
